sat.trackr.live / text

‹ back to catalog

KUIPER-00141

NORAD 65966 · 2025-228V

PAYLOAD ACTIVE UNKNOWN

§ Identity

Operator
Country
US
Launch date
2025-10-14
Launch site
AFETR
Launch vehicle
Mass (kg)
RCS (m²)

External: N2YO · Heavens-Above · Gunter

§ Orbital elements

Epoch: 2026-09-20T10:32:28.595904Z

Period
97.30 min
Inclination
51.9008°
Eccentricity
0.0000840
Mean motion
14.79927445 rev/d
Perigee alt
629.0 km
Apogee alt
630.1 km
Semi-major
7,007.7 km
B*
-1.8724e-4
RAAN
199.5515°
Arg perigee
91.5583°
Mean anomaly
268.5476°
Rev number
5,234

§ Raw data

KUIPER-001411 65966U 25228V   26263.43921986 -.00001648  00000+0 -18724-3 0  99972 65966  51.9008 199.5515 0000840  91.5583 268.5476 14.79927445 52349

JSON: /api/v1/satellites/65966 · /tle

For live sub-satellite position, see the globe view (requires WebGL).

§ Visibility from observer

Set your observer location to see the next 7 days of passes ≥ 10°. The values pass through the URL so the page stays shareable.

No JS? Fill the form by hand. The geolocation button needs JavaScript.